Showing default

O3B FM17, 44114

Orbit data source: Space-Track

O3B FM17, 44114 is a payload satellite owned by O3B SES (JE) that was launched on Thu, 04 Apr 2019 UTC via a SOYUZ-ST-B launch vehicle from the French Guiana (FRGUI). Payload-class satellites include a variety of spacecraft equipped with specific instruments for various scientific and technological missions. These include communications satellites like Starlink; space stations such as the ISS; scientific satellites like the Hubble; Earth observation satellites from companies like Planet Labs, Umbra, and HawkEye 360; GPS; miniature CubeSats for education and research; and military/defense satellites.

Loading next visibility...
Identifier
44114, 2019-020C
Orbit
Active
Last TLE update
1 day ago
Origin
Manufacturer
Thales Alenia
Mission
Operational Commercial Communications
Bus & Motor
PRISMA?, LS-400 AOCS?
Mass
700 kg wet, ~500 kg dry
Launch date (UTC)
2019-04-04 (6 years ago)
Launch vehicle
SOYUZ-ST-B
Launch site
French Guiana (FRGUI)
Object type
Payload
Rocket body
Debris
Shape & HBR
Trap Box + 2 Pan, 12 m
Radar Cross Section
21.980 m², Large (>1 m²)

Expand to show TLE details & history

TLE from 1 day ago
0 O3B FM17
1 44114U 19020C   25185.90926700 -.00000019  00000-0  00000+0 0  9990
2 44114   0.0679 357.6244 0003119 103.3365 259.0735  5.00115251114281
Epoch: 2025-07-04T21:49Z
TLE epoch observation values (Epoch: 2025-07-04T21:49:20.668Z)
Latitude
0.00202°
Longitude
109.50887°
Altitude
8,065.231 km
Speed
5.254 km/s
True Right ascension
23h 59m 59s
True Declination
0° 00' 07"
Sunlit
Object was in daylight at epoch
Visualization orbit readout
Latitude
0.00535°
Longitude
111.64715°
Altitude
8,065.11 km
Speed
5.254 km/s
Apparent Right ascension
23h 33m 24s
Apparent Declination
-12° 18' 38"
Sunlit
Object is in daylight
Visualization observer readout
Local Sidereal Time
09:46:21
Azimuth
312.006° NW
Elevation
-53.696°
Doppler factor
1
Orbital elements
Apogee altitude
8,073.46 km
Perigee altitude
8,064.447 km
Semi-major axis
14,447.09 km
Eccentricity
0.00031
Inclination
0.0679°
RAAN
357.6244°
Arg. of periapsis
103.3365°
True anomaly
Unknown
Mean anomaly
259.0735°
Eccentric anomaly
Unknown
Mean motion
1.24989 °/min
Orbital period
288.02 mins
BSTAR
0
Loading maneuver chart data...
Loading SW <> Apogee altitude chart data...
Loading historical data...
Loading historical data...
Loading historical data...
Loading historical data...
Loading historical data...
Loading historical data...
Loading historical data...
Other satellites on launch #20 in the year 2019 (2019-04-04 UTC)

O3B FM17 Visibility forecast

Observer location: undefined°, undefined°

Span
Click to sort rows by Start time (UTC) header in descending order
Start Az.
Max El. time (UTC)
Max El. Az.
Max El.
End time (UTC)
End Az.
79 mins2025-07-05 23:35:16.048Z232.08° WSW2025-07-06 00:14:16.048Z180.595° SSW24.362°2025-07-06 00:54:16.048Z127.791° SE
78 mins2025-07-06 05:36:16.048Z230.995° WSW2025-07-06 06:14:16.048Z180.641° SSW24.307°2025-07-06 06:54:16.048Z127.829° SE
78 mins2025-07-06 11:36:16.048Z231.048° WSW2025-07-06 12:15:16.048Z179.146° S24.376°2025-07-06 12:54:16.048Z127.757° SE
78 mins2025-07-06 17:36:16.048Z231.136° WSW2025-07-06 18:14:16.048Z180.661° SSW24.429°2025-07-06 18:54:16.048Z127.721° SE
|